Regional Weather Roundup
Issued by NWS Sterling, VA

Home | Current Version | Previous Version | Text Only | Print | Product List | Glossary Off
Versions: 1 2 3 4 5 6 7 8 9 10 11 12 13 14 15 16 17 18 19 20 21 22 23 24 25 26 27 28 29 30 31 32 33 34 35 36 37 38 39 40 41 42 43 44 45 46 47 48 49 50

000
ASUS41 KLWX 280811
RWRLWX

REGIONAL WEATHER ROUNDUP
NATIONAL WEATHER SERVICE BALTIMORE MD/WASHINGTON DC
400 AM EDT THU JUL 28 2016

Note: "FAIR" indicates few or no clouds below 12,000 feet
with no significant weather and/or obstructions to visibility.
 TC=TEMPERATURE CELSIUS

 * =Non NWS site. Station does not report precipitation (e.g. rain,
    snow, etc.), thunder, or fog.

DCZ001-MDZ009-015-VAZ040>042-051-053>054-280900-
WASHINGTON METRO

CITY           SKY/WX    TMP DP  RH WIND       PRES   REMARKS
WASHINGTON NAT MOCLDY    82  75  79 SW3       29.90F
DULLES         MOCLDY    76  71  85 CALM      29.91F
ANDREWS AFB    PTCLDY    76  73  90 S2        29.90S
FT BELVOIR     MOCLDY    75  73  93 CALM      29.90F
QUANTICO       FAIR      78  74  87 NW5       29.91F
COLLEGE PARK*  FAIR      73  72  94 CALM      29.90S
LEESBURG*      FAIR      75  73  94 CALM      29.93S
MANASSAS*      FAIR      75  75 100 CALM      29.91F
GAITHERSBURG*  CLEAR     73  70  88 CALM      29.95F

$$

MDZ006>007-011-014-280900-
BALTIMORE METRO

CITY           SKY/WX    TMP DP  RH WIND       PRES   REMARKS
BWI AIRPORT    CLOUDY    76  71  85 CALM      29.89F
MD SCIENCE CTR   N/A     83  71  67 MISG      29.89F
MARTIN STATE   CLEAR     77  77 100 CALM      29.91F
ANNAPOLIS      CLEAR     81  77  88 CALM      29.89S
FORT MEADE*    CLOUDY    72  72 100 CALM      29.92F

$$

MDZ012-015-019>023-280900-
MARYLAND EASTERN SHORE

CITY           SKY/WX    TMP DP  RH WIND       PRES   REMARKS
OCEAN CITY     CLEAR    N/A N/A N/A CALM      29.91S
SALISBURY      MOCLDY    77  76  96 CALM      29.91S FOG
EASTON*        PTCLDY    79  77  94 CALM      29.93F

$$

MDZ017>025-280900-
SOUTHERN MARYLAND

CITY           SKY/WX    TMP DP  RH WIND       PRES   REMARKS
PATUXENT RIVER CLEAR     77  73  87 SW3       29.90S
ST INIGOES     CLEAR     79  76  90 CALM      29.90S
LEONARDTOWN*   CLEAR     75  72  88 CALM      29.92S

$$

MDZ003>005-280900-
NORTH CENTRAL MARYLAND

CITY           SKY/WX    TMP DP  RH WIND       PRES   REMARKS
FREDERICK*     CLEAR     72  72 100 CALM      29.94S
HAGERSTOWN APT CLOUDY    75  70  84 CALM      29.94R

$$

MDZ501>502-280900-
WESTERN MARYLAND

CITY           SKY/WX    TMP DP  RH WIND       PRES   REMARKS
OAKLAND*       CLOUDY    68  68 100 SW3       30.06F
CUMBERLAND*    CLOUDY    75  68  78 NW3       29.99S

$$

VAZ025>031-280900-
SHENANDOAH VALLEY

CITY           SKY/WX    TMP DP  RH WIND       PRES   REMARKS
WINCHESTER*    FAIR      73  72  94 SW5       29.94S
FRONT ROYAL*   FAIR      72  72 100 S5        29.93F
LURAY*         FAIR     N/A N/A N/A CALM      29.96S
NEW MARKET*    FAIR     N/A N/A N/A CALM      29.95S
STAUNTON*      FAIR      69  69  99 CALM      29.98F FOG
WAYNESBORO*    FAIR      70  69  96 CALM      29.98F

$$

WVZ021-048>050-054>055-280900-
EASTERN WEST VIRGINIA PANHANDLE

CITY           SKY/WX    TMP DP  RH WIND       PRES   REMARKS
MARTINSBURG    FAIR      71  69  93 CALM      29.93S
PETERSBURG*    FAIR      73  72  94 CALM      29.96F

$$

VAZ036>039-050-280900-
CENTRAL FOOTHILLS

CITY           SKY/WX    TMP DP  RH WIND       PRES   REMARKS
CHARLOTTESVILL FOG       74  71  91 S3        29.92F VSB 1/2
CULPEPER*      FAIR      74  74  99 CALM      29.92F FOG
ORANGE*          N/A     73  73 100 CALM      29.93F
GORDONSVILLE*  FAIR      73  73 100 CALM      29.92S
WARRENTON*     FAIR      74  70  85 CALM      29.91F HAZE

$$

VAZ055>057-280900-
NORTH AND CENTRAL PIEDMONT

CITY           SKY/WX    TMP DP  RH WIND       PRES   REMARKS
FREDERICKSBRG* FAIR      76  76 100 CALM      29.90F
STAFFORD*      FAIR      73  71  94 CALM      29.95F

$$

NCZ024-NYZ072-PAZ021-071-VAZ022-071-280900-
OTHER REGIONAL OBSERVATIONS

CITY           SKY/WX    TMP DP  RH WIND       PRES   REMARKS
NEW YORK CITY  CLEAR     78  71  79 W5        29.93S
PHILADELPHIA   PTCLDY    77  74  90 S3        29.91S
PITTSBURGH     CLOUDY    72  62  71 CALM      29.94F
ROANOKE        CLOUDY    75  73  93 N5        29.99F
RICHMOND       MOCLDY    75  73  93 W3        29.91S
RALEIGH        CLEAR     75  72  90 CALM      29.93F

$$

ANZ530>537-280900-
MARINE OBSERVATIONS

STATION/POSITION TIME  TEMP    WIND        PRES
                       AIR SEA DIR/SP/G
                 (UTC) (F)     (DEG/KT/KT) (MB)
THOMAS PT LIGHT  0800   83 85  290/  2/  3 1013.7F
BALT KEY BRIDGE  0748   82     170/  5/  5 1012.1F
COVE POINT       0748   81     200/  4/  7 1013.0S
LEWISETTA        0748   79 87  240/  3/  4 1012.2F
SOLOMONS ISLAND  0748   80 86  220/  4/  5   N/A
PINEY POINT      0748          250/  4/  6   N/A

$$




USA.gov is the U.S. government's official web portal to all federal, state and local government web resources and services.